Arjeplog, Sweden

5:43 PM CEST on July 23, 2016 (GMT +0200)
Arvidsjaur | | Change Station

Elev 1243 ft 65.59 °N, 19.28 °E | Updated 23 minutes ago

Clear
Clear
77 °F
Feels Like 77 °F
N
6
Wind Variable Wind from SE

Today
High -- | Low -- °F
--% Chance of Precip.
Yesterday
High -- | Low -- °F
Precip. -- in
Pressure 30.09 in
Visibility 6.2 miles
Clouds
Dew Point 46 °F
Humidity 34%
Rainfall 0.00 in
Snow Depth Not available.
2:58 AM 10:48 PM
Waning Gibbous, 84% visible
METAR ESNX 231520Z AUTO 14005KT 100V170 9999NDV NCD 25/08 Q1019
Pressure 30.09 in
Visibility 6.2 miles
Clouds
Dew Point 46 °F
Humidity 34%
Rainfall 0.00 in
Snow Depth Not available.
2:58 AM 10:48 PM
Waning Gibbous, 84% visible
METAR ESNX 231520Z AUTO 14005KT 100V170 9999NDV NCD 25/08 Q1019

10-Day Weather Forecast

×

Almanac

Astronomy

Jul. 23, 2016 Rise Set
Actual Time
Civil Twilight
Nautical Twilight
Astronomical Twilight
Moon
Length of Visible Light
Length of Day
Tomorrow will be .
, % of the Moon is Illuminated

Today's Extremes

Country Highs Country Lows

Community

WunderPhotos

Upload Photos

1,926,848 photos uploaded!

WunderBlog® & News

Nearby

Air Quality

  Air Quality AQ Index Pollutant
Not available.

Snow Depth

Station Depth Elevation

Earthquake Activity

City Distance Mag. Time & Date
Minimum magnitude displayed is 2.5.

Coastal Water Temperatures

Place Temperature

Stations

Nearby Weather Stations

Station Location Temp. Windchill Dew Point Humidity Wind Precip. Elev Updated Type